Montello, Wisconsin, United States (53949)
Lat: 43.79N, Lon: 89.32W
Wx Zone: WIZ046
Local Info
Past Weather Observations for Wednesday, August 27, 2014

NOTE: This archive is for the closest National Weather Service station to Montello. Information may differ from the station used for current weather conditions.

Click here for Long-term Archive

Time Weather Temperature Dewpoint Humidity Pressure Winds Precip Visibility
23:53
Clear
57°F / 14°C 55°F / 13°C 94% 30.15 in
(1021 mb)
Calm - 10SM
23:30
Clear
59°F / 15°C 57°F / 14°C 94% 30.15 in
(1021 mb)
Calm - 10SM
23:15
Clear
59°F / 15°C 57°F / 14°C 94% 30.15 in
(1021 mb)
Calm - 10SM
22:55
Clear
59°F / 15°C 57°F / 14°C 94% 30.15 in
(1021 mb)
Calm - 10SM
22:40
Clear
61°F / 16°C 59°F / 15°C 94% 30.15 in
(1021 mb)
Calm - 10SM
22:33
Clear
61°F / 16°C 57°F / 14°C 88% 30.15 in
(1021 mb)
Calm - 10SM
22:15
Clear
61°F / 16°C 57°F / 14°C 88% 30.15 in
(1021 mb)
Calm - 10SM
21:55
Clear
61°F / 16°C 59°F / 15°C 94% 30.15 in
(1021 mb)
Calm - 10SM
21:35
Clear
61°F / 16°C 59°F / 15°C 94% 30.15 in
(1021 mb)
Calm - 10SM
21:10
Clear
61°F / 16°C 59°F / 15°C 94% 30.15 in
(1021 mb)
Calm - 10SM
20:55
Clear
61°F / 16°C 59°F / 15°C 94% 30.15 in
(1021 mb)
Calm - 10SM
20:35
Clear
63°F / 17°C 59°F / 15°C 88% 30.15 in
(1021 mb)
Calm - 10SM
20:15
Clear
63°F / 17°C 59°F / 15°C 88% 30.12 in
(1020 mb)
Calm - 7SM
19:55
Clear
63°F / 17°C 59°F / 15°C 88% 30.12 in
(1020 mb)
Calm - 10SM
19:35
Clear
64°F / 18°C 59°F / 15°C 83% 30.12 in
(1020 mb)
Calm - 7SM
19:00
Clear
66°F / 19°C 61°F / 16°C 83% 30.12 in
(1020 mb)
Calm - 10SM
18:35
Clear
70°F / 21°C 59°F / 15°C 69% 30.12 in
(1020 mb)
Calm - 10SM
17:55
Clear
72°F / 22°C 57°F / 14°C 61% 30.12 in
(1020 mb)
Calm - 10SM
17:40
Clear
72°F / 22°C 55°F / 13°C 57% 30.12 in
(1020 mb)
Calm - 10SM
17:33
Clear
72°F / 22°C 55°F / 13°C 57% 30.12 in
(1020 mb)
Calm - 10SM
17:15
Clear
72°F / 22°C 55°F / 13°C 57% 30.12 in
(1020 mb)
Calm - 10SM
16:55
Partly Cloudy
73°F / 23°C 55°F / 13°C 53% 30.15 in
(1021 mb)
Calm - 10SM
16:35
Mostly Cloudy
73°F / 23°C 55°F / 13°C 53% 30.15 in
(1021 mb)
W 4.6 mph
(W 7 kph)
- 10SM
16:15
Partly Cloudy
73°F / 23°C 55°F / 13°C 53% 30.15 in
(1021 mb)
SSW 3.5 mph
(SSW 6 kph)
- 10SM
15:55
Clear
75°F / 24°C 55°F / 13°C 50% 30.15 in
(1021 mb)
SSW 3.5 mph
(SSW 6 kph)
- 10SM
15:35
Partly Cloudy
75°F / 24°C 55°F / 13°C 50% 30.15 in
(1021 mb)
SSW 4.6 mph
(SSW 7 kph)
- 10SM
15:15
Overcast
73°F / 23°C 55°F / 13°C 53% 30.15 in
(1021 mb)
Calm - 10SM
14:55
Overcast
73°F / 23°C 55°F / 13°C 53% 30.15 in
(1021 mb)
W 4.6 mph
(W 7 kph)
- 10SM
14:35
Overcast
73°F / 23°C 54°F / 12°C 50% 30.18 in
(1022 mb)
Calm - 10SM
14:15
Mostly Cloudy
73°F / 23°C 54°F / 12°C 50% 30.18 in
(1022 mb)
Calm - 10SM
13:55
Clear
73°F / 23°C 54°F / 12°C 50% 30.18 in
(1022 mb)
Calm - 10SM
13:35
Clear
75°F / 24°C 54°F / 12°C 47% 30.18 in
(1022 mb)
SW 4.6 mph
(SW 7 kph)
- 10SM
13:15
Clear
73°F / 23°C 54°F / 12°C 50% 30.18 in
(1022 mb)
Calm - 10SM
12:55
Partly Cloudy
73°F / 23°C 54°F / 12°C 50% 30.18 in
(1022 mb)
S 3.5 mph
(S 6 kph)
- 10SM
12:35
Clear
73°F / 23°C 54°F / 12°C 50% 30.18 in
(1022 mb)
E 3.5 mph
(E 6 kph)
- 10SM
12:15
Clear
73°F / 23°C 54°F / 12°C 50% 30.18 in
(1022 mb)
Calm - 10SM
11:55
Clear
72°F / 22°C 52°F / 11°C 50% 30.18 in
(1022 mb)
N 3.5 mph
(N 6 kph)
- 10SM
11:35
Partly Cloudy
72°F / 22°C 54°F / 12°C 53% 30.21 in
(1023 mb)
ENE 4.6 mph
(ENE 7 kph)
- 10SM
11:15
Clear
72°F / 22°C 54°F / 12°C 53% 30.21 in
(1023 mb)
Calm - 10SM
10:55
Partly Cloudy
72°F / 22°C 54°F / 12°C 53% 30.21 in
(1023 mb)
Calm - 10SM
10:35
Partly Cloudy
72°F / 22°C 54°F / 12°C 53% 30.21 in
(1023 mb)
E 5.8 mph
(E 9 kph)
- 10SM
10:15
Clear
70°F / 21°C 54°F / 12°C 57% 30.21 in
(1023 mb)
NE 5.8 mph
(NE 9 kph)
- 10SM
09:55
Clear
70°F / 21°C 54°F / 12°C 57% 30.21 in
(1023 mb)
Calm - 10SM
09:35
Clear
68°F / 20°C 55°F / 13°C 64% 30.21 in
(1023 mb)
Calm - 10SM
09:15
Clear
68°F / 20°C 57°F / 14°C 69% 30.21 in
(1023 mb)
N 3.5 mph
(N 6 kph)
- 10SM
08:55
Clear
68°F / 20°C 55°F / 13°C 64% 30.21 in
(1023 mb)
NNE 3.5 mph
(NNE 6 kph)
- 10SM
08:35
Clear
66°F / 19°C 57°F / 14°C 73% 30.18 in
(1022 mb)
ENE 3.5 mph
(ENE 6 kph)
- 10SM
08:15
Clear
66°F / 19°C 57°F / 14°C 73% 30.18 in
(1022 mb)
NE 3.5 mph
(NE 6 kph)
- 10SM
07:55
Partly Cloudy
64°F / 18°C 55°F / 13°C 73% 30.21 in
(1023 mb)
Calm - 10SM
07:35
Overcast
63°F / 17°C 55°F / 13°C 77% 30.18 in
(1022 mb)
E 3.5 mph
(E 6 kph)
- 10SM
07:15
Mostly Cloudy
63°F / 17°C 55°F / 13°C 77% 30.18 in
(1022 mb)
Calm - 10SM
06:55
Mostly Cloudy
61°F / 16°C 55°F / 13°C 83% 30.18 in
(1022 mb)
Calm - 10SM
06:35
Overcast
61°F / 16°C 55°F / 13°C 83% 30.18 in
(1022 mb)
Calm - 10SM
06:15
Mostly Cloudy
61°F / 16°C 55°F / 13°C 83% 30.18 in
(1022 mb)
Calm - 10SM
05:55
Mostly Cloudy
61°F / 16°C 55°F / 13°C 83% 30.18 in
(1022 mb)
Calm - 10SM
05:35
Overcast
59°F / 15°C 55°F / 13°C 88% 30.18 in
(1022 mb)
Calm - 10SM
05:15
Overcast
61°F / 16°C 54°F / 12°C 77% 30.18 in
(1022 mb)
NE 3.5 mph
(NE 6 kph)
- 10SM
04:55
Overcast
61°F / 16°C 55°F / 13°C 83% 30.18 in
(1022 mb)
Calm - 10SM
04:35
Mostly Cloudy
61°F / 16°C 54°F / 12°C 77% 30.18 in
(1022 mb)
Calm - 10SM
04:15
Partly Cloudy
61°F / 16°C 55°F / 13°C 83% 30.18 in
(1022 mb)
Calm - 10SM
03:55
Mostly Cloudy
61°F / 16°C 55°F / 13°C 83% 30.15 in
(1021 mb)
NW 3.5 mph
(NW 6 kph)
- 10SM
03:35
Overcast
63°F / 17°C 57°F / 14°C 83% 30.15 in
(1021 mb)
Calm - 10SM
03:15
Overcast
63°F / 17°C 55°F / 13°C 77% 30.15 in
(1021 mb)
Calm - 10SM
02:55
Overcast
63°F / 17°C 55°F / 13°C 77% 30.15 in
(1021 mb)
Calm - 10SM
02:35
Overcast
63°F / 17°C 57°F / 14°C 83% 30.18 in
(1022 mb)
Calm - 10SM
02:15
Overcast
63°F / 17°C 57°F / 14°C 83% 30.18 in
(1022 mb)
NW 3.5 mph
(NW 6 kph)
- 10SM
01:55
Overcast
63°F / 17°C 57°F / 14°C 83% 30.15 in
(1021 mb)
Calm - 10SM
01:35
Overcast
63°F / 17°C 57°F / 14°C 83% 30.15 in
(1021 mb)
NNW 3.5 mph
(NNW 6 kph)
- 10SM
01:15
Overcast
63°F / 17°C 57°F / 14°C 83% 30.18 in
(1022 mb)
Calm - 10SM
00:55
Mostly Cloudy
63°F / 17°C 57°F / 14°C 83% 30.15 in
(1021 mb)
NNW 3.5 mph
(NNW 6 kph)
- 10SM
00:35
Mostly Cloudy
Drizzle
63°F / 17°C 57°F / 14°C 83% 30.15 in
(1021 mb)
Calm - 10SM
00:15
Mostly Cloudy
Light Rain
64°F / 18°C 57°F / 14°C 78% 30.15 in
(1021 mb)
Calm - 10SM
Time Weather Temperature Dewpoint Humidity Pressure Winds Precip Visibility


Weather for websites

WeatherForYou.com, LLC is not responsible for any damages or problems caused by this service. Current weather conditions are obtained from the closest station including government and personal stations which may have varying degrees of accuracy. Weather forecasts are derived from the NOAA NDFD. Like all things, this site belongs to Jesus Christ... He just trusts me to maintain it. If you have any questions or comments email webmaster@weatherforyou.com

Copyright © 2014, WeatherForYou.com LLC. All rights reserved.